Location: Ferchesar
(52.6477°N, 12.4298°E)
Time: 10:12:13
(UTC+01:00)

Explorer 7 - Pass Details

Date: 15 December 2021
Orbit: 483 x 674 km, 50.3° (Epoch: 24 January)

Event Time Altitude Azimuth Distance (km) Brightness Sun altitude
Rises 05:17:53 0° 272° (W) 2,882 - -25.4°
Reaches altitude 10° 05:20:17 10° 269° (W) 1,944 - -25.0°
Maximum altitude 05:24:39 59° 191° (S) 666 - -24.4°
Exits shadow 05:24:58 57° 168° (SSE) 677 7.2 -24.3°
Drops below altitude 10° 05:28:44 10° 111° (ESE) 1,820 10.5 -23.8°
Sets 05:30:55 0° 108° (ESE) 2,680 11.7 -23.4°
